Regional Weather Roundup
Issued by NWS Cleveland, OH

Home | Current Version | Previous Version | Graphics & Text | Print | Product List | Glossary On
Versions: 1 2 3 4 5 6 7 8 9 10 11 12 13 14 15 16 17 18 19 20 21 22 23 24 25 26 27 28 29 30 31 32 33 34 35 36 37 38 39 40 41 42 43 44 45 46 47 48 49 50
741
ASUS41 KCLE 302110
RWRCLE
OHIO REGIONAL WEATHER ROUNDUP
NATIONAL WEATHER SERVICE WILMINGTON, OH
500 PM EDT SAT APR 30 2016

NOTE: "FAIR" INDICATES FEW OR NO CLOUDS BELOW 12,000 FEET WITH NO
SIGNIFICANT WEATHER AND/OR OBSTRUCTIONS TO VISIBILITY.

OHZ001>008-015>018-024>027-034-035-043-044-302200-
   NORTHWEST OHIO

CITY           SKY/WX    TMP DP  RH WIND       PRES   REMARKS
DEFIANCE       LGT RAIN  49  45  86 E10       30.01S
FINDLAY        LGT RAIN  52  46  80 E10       29.98F
TOLEDO EXPRESS LGT RAIN  47  45  93 E10       30.02F FOG
TOLEDO EXEC    LGT RAIN  48  44  86 E10       30.05F FOG
LIMA           LGT RAIN  50  49  96 E12       29.96F FOG
$$

OHZ009>014-019>023-028>033-038-089-302200-
   NORTHEAST OHIO

CITY           SKY/WX    TMP DP  RH WIND       PRES   REMARKS
CLE-HOPKINS    LGT RAIN  50  46  86 N5        30.09F
CLE-LAKEFRONT  LGT RAIN  49  46  90 NE15      30.06F
CUY CO. ARPT   CLOUDY    57  48  72 N7        30.07F
LORAIN-ELYRIA  LGT RAIN  49  44  83 E10       30.06F
ASHTABULA      PTSUNNY   60  46  59 VRB5      30.08F
AKRON-CANTON   LGT RAIN  58  48  69 SW3       30.05F
WOOSTER        LGT RAIN  53  49  86 CALM      30.05F FOG
MANSFIELD      LGT RAIN  50  49  96 E9        30.02F FOG
YOUNGSTOWN     CLOUDY    62  47  57 E5        30.06F
$$

OHZ042-051>053-060>062-070>072-077>081-302200-
  SOUTHWEST OHIO

CITY           SKY/WX    TMP DP  RH WIND       PRES   REMARKS
CINC-COVINGTON CLOUDY    59  57  93 SE10      29.91F
CINC-LUNKEN    CLOUDY    60  58  92 VRB3      29.92S
HAMILTON       CLOUDY    59  56  89 SE6       29.93F
DAYTON         RAIN      55  54  96 SE12      29.94S FOG
WRIGHT-PAT AFB LGT RAIN  56  56 100 E7        29.94S FOG
DAYTON GENERAL CLOUDY    57  53  86 SE8       29.92F
WILMINGTON     LGT RAIN  55  54  96 SE20G25   29.91F FOG
$$

OHZ036-037-039>041-045>050-054>059-063>069-073>076-082>088-302200-
  CENTRAL AND SOUTHEAST OHIO

CITY           SKY/WX    TMP DP  RH WIND       PRES   REMARKS
COLUMBUS       LGT RAIN  54  53  97 E12       29.98F
OSU AIRPORT    LGT RAIN  55  53  93 SE10      29.97F FOG
BOLTON FIELD   LGT RAIN  55  54  94 E14       29.98F FOG
RICKENBACK AFB RAIN      55  54  96 SE9       29.98F
NEWARK         LGT RAIN  57  52  83 E5        30.02F
MARION         LGT RAIN  52  50  93 E10       29.99F FOG
LANCASTER      LGT RAIN  57  54  89 E5        30.02S FOG
ZANESVILLE     LGT RAIN  59  54  83 E5        30.02F
NEW PHILLY     LGT RAIN  58  50  75 CALM      30.05F
$$




USA.gov is the U.S. government's official web portal to all federal, state and local government web resources and services.